GW3114 Weather Reports


Display with metric or nautical units.
time (UTC)temp
F
wind
direction
speed
MPH
gust
MPH
rain 1hr
in
rain 24hr
in
rain mn
in
humidity
%
barometer
mb
20260902074140 74 223 0.0 0.0 0.00 0.00 0.00 93 1017.4
20260902073137 74 225 0.0 0.0 0.00 0.00 0.00 92 1017.6
20260902072135 75 230 0.0 0.0 0.00 0.00 0.00 92 1017.7
20260902071131 75 227 0.0 0.0 0.00 0.00 0.00 91 1017.5
20260902070127 76 226 0.0 0.0 0.00 0.00 0.00 89 1017.4
20260902065122 77 214 0.0 0.0 0.00 0.00 0.00 87 1017.3
20260902064118 78 215 0.0 0.0 0.00 0.00 0.00 85 1017.3
20260902063114 78 230 0.0 0.0 0.00 0.00 0.00 83 1017.4
20260902062114 79 224 2.0 2.0 0.00 0.00 0.00 82 1017.3
20260902061110 79 268 1.0 1.0 0.00 0.00 0.00 80 1017.4
20260902060108 80 186 1.0 2.0 0.00 0.00 0.00 79 1017.5
20260902055105 81 334 1.0 1.0 0.00 0.00 0.00 76 1017.3
20260902054101 81 276 1.0 2.0 0.00 0.00 0.00 76 1017.5
20260902053056 82 231 0.0 0.0 0.00 0.00 0.00 75 1017.1
20260902052052 82 237 0.0 0.0 0.00 0.00 0.00 74 1016.9
20260902051051 82 295 2.0 2.0 0.00 0.00 0.00 74 1016.8
20260902050047 83 268 2.0 3.0 0.00 0.00 0.00 72 1016.7
20260902045044 82 260 3.0 3.0 0.00 0.00 0.00 73 1016.7
20260902044040 82 252 3.0 3.0 0.00 0.00 0.00 72 1016.8
20260902043036 82 247 2.0 3.0 0.00 0.00 0.00 73 1016.7
20260902042031 82 274 3.0 3.0 0.00 0.00 0.00 73 1016.5
20260902041026 82 224 2.0 2.0 0.00 0.00 0.00 73 1016.9
20260902040026 81 261 2.0 3.0 0.00 0.00 0.00 75 1016.7
20260902035027 82 236 2.0 2.0 0.00 0.00 0.00 75 1016.6
20260902034025 79 264 0.0 0.0 0.00 0.00 0.00 81 1016.4
20260902033025 76 224 0.0 0.0 0.00 0.00 0.00 91 1016.1
20260902032025 76 224 0.0 0.0 0.00 0.00 0.00 92 1016.1
20260902031022 76 233 0.0 0.0 0.00 0.00 0.00 92 1016.1
20260902030022 77 232 0.0 0.0 0.00 0.00 0.00 91 1016.0
20260902025018 77 203 0.0 0.0 0.00 0.00 0.00 89 1015.8
20260902024013 78 220 0.0 0.0 0.00 0.00 0.00 87 1016.0
20260902023009 81 165 0.0 0.0 0.00 0.00 0.00 83 1016.1
20260902022005 82 224 0.0 0.0 0.00 0.00 0.00 76 1016.0
20260902021001 82 245 0.0 0.0 0.00 0.00 0.00 77 1016.0
20260902015959 82 199 0.0 0.0 0.00 0.00 0.00 77 1015.8
20260902014955 79 260 2.0 2.0 0.00 0.00 0.00 83 1015.9
20260902013952 77 207 0.0 1.0 0.00 0.00 0.00 98 1015.8
20260902012948 77 211 0.0 0.0 0.00 0.00 0.00 98 1015.9
20260902011944 78 219 0.0 0.0 0.00 0.00 0.00 97 1016.0
20260902010939 78 211 0.0 0.0 0.00 0.00 0.00 95 1015.3
20260902005939 79 223 0.0 0.0 0.00 0.00 0.00 91 1015.3
20260902004935 80 220 0.0 0.0 0.00 0.00 0.00 91 1014.9
20260902003930 80 223 0.0 0.0 0.00 0.00 0.00 90 1015.0
20260902002925 81 235 0.0 0.0 0.00 0.00 0.00 89 1015.3
20260902001920 82 224 0.0 0.0 0.00 0.00 0.00 88 1014.6
20260902000916 82 216 0.0 0.0 0.00 0.00 0.00 86 1014.3
20260901235912 84 210 0.0 0.0 0.00 0.00 0.00 83 1014.4
20260901234908 86 231 0.0 1.0 0.00 0.00 0.00 79 1014.4
20260901233902 86 228 2.0 2.0 0.00 0.00 0.00 77 1014.3
20260901232900 87 294 2.0 3.0 0.00 0.00 0.00 77 1014.5
20260901231856 87 253 1.0 1.0 0.00 0.00 0.00 77 1014.3
20260901230854 88 229 1.0 2.0 0.00 0.00 0.00 75 1014.6
20260901225849 89 291 2.0 3.0 0.00 0.00 0.00 73 1014.3
20260901224849 89 233 1.0 2.0 0.00 0.00 0.00 72 1014.7
20260901223847 89 226 1.0 1.0 0.00 0.00 0.00 73 1014.7
20260901222844 90 220 1.0 1.0 0.00 0.00 0.00 71 1014.6
20260901221842 91 217 1.0 1.0 0.00 0.00 0.00 71 1014.4
20260901220837 93 203 0.0 0.0 0.00 0.00 0.00 69 1014.6
20260901215835 91 230 0.0 0.0 0.00 0.00 0.00 70 1014.5
20260901214833 90 218 0.0 0.0 0.00 0.00 0.00 71 1014.6
20260901213833 90 222 0.0 0.0 0.00 0.00 0.00 72 1014.8
20260901212833 90 224 0.0 0.0 0.00 0.00 0.00 70 1014.7
20260901211831 91 230 0.0 0.0 0.00 0.00 0.00 68 1014.5
20260901210828 92 218 1.0 1.0 0.00 0.00 0.00 65 1014.7
20260901205825 94 220 0.0 0.0 0.00 0.00 0.00 62 1014.6
20260901204820 96 200 3.0 3.0 0.00 0.00 0.00 58 1014.8
20260901203816 95 210 0.0 1.0 0.00 0.00 0.00 63 1014.6
20260901202811 96 177 0.0 1.0 0.00 0.00 0.00 59 1014.7
20260901201809 95 220 0.0 1.0 0.00 0.00 0.00 61 1014.9
20260901200809 97 221 0.0 0.0 0.00 0.00 0.00 59 1014.8
20260901195807 96 294 2.0 3.0 0.00 0.00 0.00 59 1015.0
20260901194802 95 246 1.0 2.0 0.00 0.00 0.00 60 1015.5
20260901193759 95 160 1.0 2.0 0.00 0.00 0.00 59 1015.4
20260901192758 93 244 3.0 3.0 0.00 0.00 0.00 63 1015.5
20260901191756 91 246 2.0 3.0 0.00 0.00 0.00 67 1015.6
20260901190753 93 253 1.0 2.0 0.00 0.00 0.00 67 1015.8
20260901185752 92 234 0.0 1.0 0.00 0.00 0.00 66 1016.3
20260901184746 91 244 2.0 2.0 0.00 0.00 0.00 66 1016.3
20260901183743 92 221 0.0 0.0 0.00 0.00 0.00 66 1016.3
20260901182739 93 229 2.0 3.0 0.00 0.00 0.00 65 1016.3
20260901181733 94 298 4.0 6.0 0.00 0.00 0.00 64 1016.4
20260901180732 95 259 3.0 6.0 0.00 0.00 0.00 61 1016.2
20260901175731 94 223 2.0 3.0 0.00 0.00 0.00 67 1016.1
20260901174727 95 191 1.0 1.0 0.00 0.00 0.00 63 1016.2
20260901173724 95 239 1.0 1.0 0.00 0.00 0.00 63 1016.4
20260901172721 94 293 4.0 4.0 0.00 0.00 0.00 64 1016.3
20260901171718 95 207 1.0 1.0 0.00 0.00 0.00 62 1016.3
20260901170717 94 244 1.0 1.0 0.00 0.00 0.00 64 1016.3
20260901165716 93 266 2.0 2.0 0.00 0.00 0.00 65 1016.3
20260901164714 95 290 3.0 3.0 0.00 0.00 0.00 64 1016.6
20260901163710 94 246 0.0 1.0 0.00 0.00 0.00 63 1016.7
20260901162704 92 308 4.0 4.0 0.00 0.00 0.00 67 1016.8
20260901161702 91 231 2.0 2.0 0.00 0.00 0.00 69 1016.8
20260901160659 91 252 4.0 4.0 0.00 0.00 0.00 66 1016.6
20260901155659 94 321 5.0 8.0 0.00 0.00 0.00 64 1016.8
20260901154655 94 231 1.0 2.0 0.00 0.00 0.00 68 1017.0
20260901153651 93 270 2.0 3.0 0.00 0.00 0.00 69 1017.1
20260901152651 92 233 1.0 1.0 0.00 0.00 0.00 68 1017.2
20260901151646 93 303 4.0 8.0 0.00 0.00 0.00 65 1017.3
20260901150644 92 231 2.0 3.0 0.00 0.00 0.00 67 1017.4
20260901145641 91 272 3.0 4.0 0.00 0.00 0.00 67 1017.1
20260901144637 91 243 0.0 1.0 0.00 0.00 0.00 69 1017.2
20260901143633 87 303 1.0 2.0 0.00 0.00 0.00 72 1017.4
20260901142631 88 292 2.0 2.0 0.00 0.00 0.00 68 1017.4
20260901141631 91 283 3.0 4.0 0.00 0.00 0.00 68 1017.5
20260901140630 89 264 3.0 3.0 0.00 0.00 0.00 68 1017.4
20260901135629 89 214 0.0 0.0 0.00 0.00 0.00 76 1017.5
20260901134626 87 166 0.0 0.0 0.00 0.00 0.00 80 1017.2
20260901133626 87 171 0.0 0.0 0.00 0.00 0.00 82 1017.7
20260901132625 88 162 0.0 0.0 0.00 0.00 0.00 77 1017.5
20260901131625 85 218 0.0 0.0 0.00 0.00 0.00 83 1017.5
20260901130621 83 201 0.0 0.0 0.00 0.00 0.00 84 1017.6
20260901125617 82 197 0.0 0.0 0.00 0.00 0.00 87 1017.6
20260901124613 82 208 0.0 0.0 0.00 0.00 0.00 86 1017.6
20260901123608 81 214 0.0 0.0 0.00 0.00 0.00 88 1017.7
20260901122606 78 193 0.0 0.0 0.00 0.00 0.00 93 1017.7
20260901121601 75 199 0.0 0.0 0.00 0.00 0.00 99 1017.8
20260901120602 73 213 0.0 0.0 0.00 0.00 0.00 99 1017.9
20260901115559 73 214 0.0 0.0 0.00 0.00 0.00 99 1017.5
20260901114557 73 214 0.0 0.0 0.00 0.00 0.00 99 1017.5
20260901113555 73 222 0.0 0.0 0.00 0.00 0.00 99 1017.5
20260901112550 73 221 0.0 0.0 0.00 0.00 0.00 99 1017.5
20260901111550 72 220 0.0 0.0 0.00 0.00 0.00 99 1017.3
20260901110550 72 211 0.0 0.0 0.00 0.00 0.00 99 1017.3
20260901105549 72 219 0.0 0.0 0.00 0.00 0.00 99 1017.2
20260901104544 72 223 0.0 0.0 0.00 0.00 0.00 99 1017.0
20260901103539 72 220 0.0 0.0 0.00 0.00 0.00 99 1017.2
20260901102535 72 218 0.0 0.0 0.00 0.00 0.00 99 1017.0
20260901101531 72 228 0.0 0.0 0.00 0.00 0.00 99 1017.0
20260901100531 72 225 0.0 0.0 0.00 0.00 0.00 99 1016.8
20260901095529 72 216 0.0 0.0 0.00 0.00 0.00 99 1016.9
20260901094527 72 230 0.0 0.0 0.00 0.00 0.00 99 1016.9
20260901093527 73 219 0.0 0.0 0.00 0.00 0.00 99 1017.0
20260901092524 73 215 0.0 0.0 0.00 0.00 0.00 99 1017.2
20260901091521 73 215 0.0 0.0 0.00 0.00 0.00 99 1017.0
20260901090521 73 221 0.0 0.0 0.00 0.00 0.00 98 1017.4
20260901085518 74 218 0.0 0.0 0.00 0.00 0.00 97 1017.1
20260901084516 75 211 0.0 0.0 0.00 0.00 0.00 97 1016.8
20260901083512 75 220 0.0 0.0 0.00 0.00 0.00 96 1017.2
20260901082511 75 214 0.0 0.0 0.00 0.00 0.00 96 1017.3
20260901081507 75 195 0.0 0.0 0.00 0.00 0.00 97 1017.3
20260901080507 75 177 0.0 0.0 0.00 0.00 0.00 98 1017.1
20260901075503 74 216 0.0 0.0 0.00 0.00 0.00 99 1017.2